Preview of NWS' New Version of Forecast
This preview is not operational and should not be used for support decisions.
Latest weather observations around

San Jose, San Jose International Airport (KSJC)

Using English Units (Switch to International System of Units)
Date/ Time (PDT) Wind (mph) Vis. (mi) Weather Sky Cond. Temp (°F) Rel. Humidity Wind Chill (°F) Heat Index (°F) Pressure Precip. (in)
Air Dwpt 6 hour Altimeter (inHg) Sea level (inHg) 1 hr 3 hr 6 hr
Max Min
Jul 21 21:53 NW 9 10 Mostly Cloudy FEW003 SCT060 BKN100 69 65     87%     29.92 29.91      
Jul 21 20:53 WNW 9 10 Mostly Cloudy FEW020 SCT060 BKN100 71 63     76%   71 29.9 29.89      
Jul 21 19:53 NW 9 10 Mostly Cloudy SCT055 SCT085 BKN120 74 60     62%   74 29.89 29.88      
Jul 21 18:53 NNW 9 10 Mostly Cloudy FEW055 SCT085 BKN120 77 59     54%   77 29.88 29.88      
Jul 21 17:53 NW 11 10 Partly Cloudy FEW055 SCT085 SCT120 77 59     54%   77 29.88 29.87      
Jul 21 16:53 NNW 13 10 Mostly Cloudy FEW055 SCT085 BKN120 78 60     54%   78 29.89 29.88      
Jul 21 15:53 NNW 13 10 Mostly Cloudy FEW055 SCT085 BKN150 78 60     54%   78 29.9 29.89      
Jul 21 14:53 NNW 10 10 Mostly Cloudy FEW055 SCT085 BKN150 82 60     47%   82 29.9 29.9      
Jul 21 13:53 NW 9 10 Partly Cloudy FEW055 FEW070 SCT150 82 58     44%   82 29.91 29.91      
Jul 21 12:53 NNW 9 10 Partly Cloudy FEW045 FEW070 SCT150 79 59     50%   79 29.92 29.91      
Jul 21 11:53 SW 5 10 Partly Cloudy FEW043 FEW070 SCT150 77 56     48%   77 29.92 29.92      
Jul 21 10:53 ESE 3 10 Partly Cloudy FEW010 FEW075 SCT160 72 55     55%   71 29.94 29.93      
Jul 21 09:53 5 10 Partly Cloudy FEW008 FEW080 SCT200 67 59     76%     29.94 29.94      
Jul 21 08:53 SE 7 10 Partly Cloudy FEW006 SCT150 SCT200 64 61     90%     29.95 29.95      
Jul 21 07:53 SSE 6 10 Partly Cloudy FEW005 FEW012 SCT200 61 60     97%     29.94 29.93      
Jul 21 06:53 SSE 9 10 Partly Cloudy FEW005 FEW012 SCT180 59 59     100%     29.93 29.92      
Jul 21 05:53 SSE 8 10 Partly Cloudy FEW005 FEW012 SCT160 59 59     100%     29.91 29.91      
Jul 21 05:33 SSE 9 10 Partly Cloudy FEW005 FEW016 SCT160 59 59     100%     29.91        
Jul 21 04:53 SSE 7 10 Clear CLR 59 59     100%     29.9 29.89      
Jul 21 03:53 S 8 10 Clear CLR 60 59     96%     29.9 29.9      
Jul 21 02:53 SSE 6 10 Clear CLR 61 61     100%     29.9 29.9      
Jul 21 01:53 Calm 10 Partly Cloudy SCT015 61 61     100%     29.91 29.91      
Jul 21 01:08 NNW 3 10 Mostly Cloudy BKN016 62 62     100%     29.92        
Jul 21 00:53 Calm 10 Clear CLR 61 61     100%     29.92 29.91      
Jul 20 23:53 N 3 10 Mostly Clear FEW002 FEW020 62 60     93%     29.91 29.91      
Jul 20 22:53 NNW 6 10 Mostly Clear FEW002 FEW020 63 62     97%     29.91 29.91      
Jul 20 21:53 NW 8 10 Mostly Clear FEW003 FEW010 FEW060 64 62     93%     29.9 29.9      
Jul 20 20:53 NW 9 10 Mostly Clear FEW010 FEW060 65 64     97%     29.89 29.89      
Jul 20 19:53 NW 11 10 Mostly Clear FEW014 FEW060 68 64     87%     29.87 29.87      
Jul 20 18:53 NNW 13 10 Mostly Clear FEW006 FEW016 71 62     73%   71 29.87 29.87      
Jul 20 17:53 NW 14 10 Mostly Clear FEW006 74 59     60%   74 29.86 29.86      
Jul 20 16:53 NW 13 10 Clear CLR 77 59     54%   77 29.87 29.87      
Jul 20 15:53 NW 11 10 Mostly Clear FEW080 77 58     52%   77 29.88 29.88      
Jul 20 14:53 NW 9 10 Mostly Clear FEW080 78 58     50%   78 29.89 29.89      
Jul 20 13:53 NW 11 10 Clear CLR 78 58     50%   78 29.91 29.91      
Jul 20 12:53 WNW 7 10 Mostly Clear FEW012 77 56     48%   77 29.92 29.92      
Jul 20 11:53 NNE 3 10 Mostly Clear FEW011 74 55     52%   73 29.94 29.93      
Jul 20 10:53 3 10 Mostly Clear FEW011 68 55     63%     29.95 29.94      
Jul 20 10:05 SSE 5 10 Clear   65 59     81%     29.95        
Jul 20 09:53 3 10 Clear   64 59     84%     29.95 29.95      
Jul 20 08:53 SSW 8 10 Mostly Cloudy FEW007 BKN016 63 61     93%     29.96 29.95      
Jul 20 07:53 SSW 6 10 Mostly Cloudy FEW007 BKN016 62 60     93%     29.95 29.94      
Jul 20 06:53 SSE 6 10 Mostly Cloudy FEW007 BKN016 62 60     93%     29.93 29.93      
Jul 20 05:53 S 6 10 Mostly Cloudy FEW006 BKN017 60 59     96%     29.92 29.91      
Jul 20 05:35 S 6 10 Partly Cloudy FEW006 SCT017 60 59     96%     29.91        
Jul 20 04:53 S 6 10 Clear CLR 60 60     100%     29.91 29.91      
Jul 20 03:53 S 9 10 Clear CLR 61 60     97%     29.9 29.9      
Jul 20 02:53 S 9 10 Clear CLR 61 61     100%     29.91 29.9      
Jul 20 01:53 SSE 10 10 Clear CLR 62 60     93%     29.91 29.91      
Jul 20 00:53 SSE 11 10 Clear CLR 63 60     90%     29.91 29.91      
Jul 19 23:53 S 10 10 Clear CLR 64 60     87%     29.91 29.9      
Jul 19 22:53 S 8 10 Mostly Clear FEW010 FEW200 65 59     81%     29.91 29.9      
Jul 19 21:53 N 5 10 Mostly Clear FEW200 66 62     87%     29.9 29.9      
Jul 19 20:53 NW 10 10 Mostly Clear FEW016 FEW200 68 64     87%     29.88 29.87      
Jul 19 19:53 NW 13 10 Mostly Clear FEW016 FEW200 71 58     63%   71 29.86 29.86      
Jul 19 18:53 NNW 11 10 Partly Cloudy FEW016 SCT200 77 58     52%   77 29.85 29.84      
Jul 19 17:53 SW 10 10 Mostly Clear FEW019 FEW060 81 51     35%   80 29.85 29.84      
Jul 19 16:53 SW 13 10 Mostly Clear FEW019 FEW060 81 54     39%   81 29.85 29.85      
Jul 19 15:53 SSW 14 10 Mostly Clear FEW019 FEW060 83 53     36%   82 29.86 29.85      
Jul 19 14:53 SSW 13 10 Mostly Clear FEW019 FEW060 82 54     38%   81 29.87 29.86      
Jul 19 13:53 SSW 11 10 Mostly Clear FEW019 83 56     40%   82 29.88 29.87      
Jul 19 12:53 S 11 10 Mostly Clear FEW019 81 57     44%   81 29.89 29.88      
Jul 19 11:53 S 9 10 Mostly Clear FEW012 77 56     48%   77 29.89 29.88      
Jul 19 10:53 SE 9 10 Mostly Clear FEW012 73 56     55%   73 29.9 29.89      
Jul 19 09:53 SE 11 10 Mostly Clear FEW009 69 58     68%     29.89 29.89      
Jul 19 08:53   10 Mostly Clear FEW005 FEW095 67 57     71%     29.89 29.89      
Jul 19 07:53   10 Partly Cloudy FEW005 SCT095 64 56     75%     29.89 29.89      
Jul 19 06:53 SSE 9 10 Partly Cloudy FEW009 SCT100 60 51     72%     29.88 29.88      
Jul 19 05:53 SSE 11 10 Mostly Cloudy FEW005 BKN100 59        %     29.87 29.87      
Jul 19 04:53 SE 13 10 Clear CLR 60        %     29.86 29.86      
Jul 19 03:53 SSE 8 10 Clear CLR 60        %     29.87 29.86      
Jul 19 02:53 SE 13 10 Clear CLR 60        %     29.87 29.87      
Jul 19 01:53 S 9 10 Clear CLR 61 56     83%     29.88 29.88      
Jul 19 00:53 SSE 13 10 Clear CLR 62 56     80%     29.89 29.88      
Jul 18 23:53 SE 9 10 Mostly Clear FEW005 63 57     81%     29.89 29.89      
Jul 18 22:53 NW 3 10 Mostly Clear FEW005 63 57     81%     29.91 29.9      
Jul 18 21:53 NW 6 10 Mostly Clear FEW004 FEW009 63 58     84%     29.91 29.91      
Jul 18 20:53 NNW 9 10 Mostly Clear FEW004 FEW012 FEW075 66 60     81%     29.89 29.89      
Jul 18 19:53 NNW 14 10 Mostly Clear FEW004 FEW015 FEW075 70 56     61%     29.88 29.88      
Jul 18 18:53 NNW 14 10 Partly Cloudy FEW004 FEW016 SCT080 74 58     57%   74 29.87 29.86      
Jul 18 18:30   10 Partly Cloudy FEW004 FEW016 SCT080 77 59     54%   77 29.86        
Jul 18 17:53   10 Partly Cloudy FEW010 FEW030 SCT080 77 59     54%   77 29.87 29.86      
Jul 18 16:53   10 Partly Cloudy FEW010 FEW030 SCT080 79 60     52%   79 29.87 29.87      
Jul 18 15:53 NNW 16 10 Partly Cloudy FEW030 SCT080 SCT120 80 59     49%   81 29.88 29.88      
Jul 18 14:53 NW 15 10 Mostly Cloudy FEW010 BKN100 BKN160 82 57     43%   82 29.89 29.89      
Jul 18 13:53 NW 11 10 Mostly Cloudy BKN100 BKN160 82 59     46%   82 29.9 29.89      
Jul 18 12:53 WNW 10 10 Mostly Cloudy BKN100 BKN160 84 57     40%   83 29.9 29.9      
Jul 18 11:53 Calm 10 Mostly Cloudy BKN100 BKN160 78 54     43%   78 29.92 29.91      
Jul 18 10:53 3 10 Mostly Cloudy BKN100 BKN160 73 54     51%   72 29.92 29.92      
Jul 18 09:53 SE 11 10 Mostly Cloudy BKN100 BKN160 67 54     63%     29.93 29.93      
Jul 18 08:53 SSE 13 10 Mostly Cloudy BKN100 BKN160 65 55     70%     29.93 29.93      
Jul 18 07:53 S 10 10 Mostly Cloudy FEW005 BKN100 BKN160 61 55     81%     29.93 29.93      
Jul 18 06:53 SSE 11 10 Mostly Cloudy FEW005 BKN100 BKN160 58 55     90%     29.93 29.92      
Jul 18 05:53 S 8 10 Mostly Cloudy FEW003 BKN095 BKN160 59 55     87%     29.92 29.91      
Jul 18 00:53 SSE 8 10 Clear CLR 64 55     73%     29.91 29.91      
Jul 17 23:53 SSE 9 10 Mostly Clear FEW100 FEW160 67 55     66%     29.9 29.9      
Jul 17 22:53 NW 3 10 Partly Cloudy FEW090 SCT160 69 61     75%     29.9 29.9      
Jul 17 21:53 WNW 6 10 Partly Cloudy FEW090 SCT160 70 60     71%     29.9 29.9      
Jul 17 20:53 NW 9 10 Partly Cloudy SCT100 SCT160 73 60     64%   73 29.89 29.88      
Jul 17 19:53 NW 10 10 Mostly Cloudy SCT100 BKN160 76 60     58%   76 29.88 29.88      
Jul 17 18:53 NW 11 10 Partly Cloudy FEW075 FEW100 SCT160 78 61     56%   78 29.87 29.87      
Jul 17 17:53 NW 15 10 Partly Cloudy FEW075 FEW100 SCT160 79 61     54%   79 29.87 29.87      
Jul 17 16:53 NW 15 10 Partly Cloudy FEW060 FEW100 SCT160 81 62     53%   82 29.87 29.87      
Jul 17 15:53 NW 10 10 Partly Cloudy FEW055 FEW075 SCT160 83 55     38%   82 29.87 29.87      
Jul 17 14:53 NNW 10 10 Partly Cloudy FEW055 FEW080 SCT160 85 58     40%   84 29.88 29.87      
Jul 17 13:53 WNW 6 10 Partly Cloudy FEW055 FEW080 SCT160 84 54     36%   83 29.88 29.88      
Jul 17 12:53 3 10 Mostly Cloudy SCT080 BKN120 BKN150 80 52     38%   80 29.9 29.89      
Jul 17 11:53 5 10 Partly Cloudy SCT080 SCT150 76 54     47%   75 29.9 29.9      
Jul 17 10:53 SSE 5 10 Partly Cloudy FEW011 SCT080 SCT130 72 54     53%   71 29.91 29.91      
Jul 17 09:53 SE 9 10 Partly Cloudy FEW011 SCT080 SCT130 67 55     66%     29.91 29.91      
Jul 17 08:53   10 Partly Cloudy FEW011 SCT080 SCT130 63 56     78%     29.91 29.91      
Jul 17 07:53   10 Partly Cloudy FEW008 SCT080 61 55     81%     29.91 29.91      
Jul 17 06:53 SSE 11 10 Partly Cloudy FEW008 SCT080 59 55     87%     29.9 29.9      
Jul 17 05:53   10 Partly Cloudy FEW008 SCT080 58 55     90%     29.89 29.88      
Jul 17 04:53   10 Clear CLR 59 55     87%     29.88 29.87      
Jul 17 03:53 SSE 10 10 Clear CLR 59 55     87%     29.87 29.87      
Jul 17 02:53 SE 8 10 Clear CLR 59 55     87%     29.88 29.88      
Jul 17 01:53 Calm 10 Clear CLR 60 56     86%     29.9 29.89      
Jul 17 00:53 N 7 10 Clear CLR 60 56     86%     29.91 29.91      
Jul 16 23:53 NNW 8 10 Mostly Clear FEW010 FEW080 61 57     87%     29.9 29.9      
Jul 16 22:53 NNW 8 10 Clear   62 55     78%     29.91 29.9      
Jul 16 21:53 NNW 8 10 Mostly Clear FEW012 FEW080 FEW130 64 55     73%     29.91 29.91      
Jul 16 20:53 N 8 10 Mostly Clear FEW012 FEW080 FEW130 67 52     59%     29.92 29.91      
Jul 16 19:53 NNW 14 10 Partly Cloudy FEW013 FEW090 SCT160 71 51     49%   70 29.91 29.91      
Jul 16 18:53 NW 17 10 Mostly Clear FEW011 FEW075 FEW160 77 51     40%   76 29.89 29.89      
Jul 16 15:53 NNW 14 10 Mostly Clear FEW100 FEW160 82 57     43%   82 29.91 29.91      
Jul 16 14:53 NNW 11 10 Mostly Clear FEW110 FEW200 81 59     47%   81 29.92 29.91      
Jul 16 13:53 NNW 10 10 Mostly Clear FEW055 FEW120 83 58     43%   83 29.92 29.91      
Jul 16 12:53 NNW 13 10 Clear CLR 81 58     45%   81 29.92 29.92      
Jul 16 11:53 Calm 10 Clear CLR 80 59     49%   81 29.92 29.92      
Jul 16 10:53 Calm 10 Mostly Clear FEW080 77 59     54%   77 29.92 29.92      
Jul 16 09:53 3 10 Mostly Clear FEW080 72 59     64%   72 29.93 29.93      
Jul 16 08:53 W 3 10 Mostly Clear FEW015 FEW080 68 60     76%     29.93 29.93      
Jul 16 07:53 NW 3 10 Mostly Clear FEW006 FEW080 65 60     84%     29.93 29.93      
Jul 16 06:53 WNW 3 10 Mostly Clear FEW004 FEW080 62 60     93%     29.92 29.92      
Jul 16 05:53 Calm 10 Mostly Clear FEW003 FEW080 61 59     93%     29.92 29.92      
Jul 16 04:53 Calm 10 Clear CLR 60 58     93%     29.92 29.91      
Jul 16 03:53 Calm 10 Clear CLR 60 58     93%     29.92 29.92      
Jul 16 02:53 N 5 10 Clear CLR 61 59     93%     29.93 29.93      
Jul 16 01:53 NNW 5 10 Clear CLR 61 60     97%     29.95 29.94      
Jul 16 00:53 N 7 10 Clear CLR 62 60     93%     29.96 29.96      
Jul 15 23:53 NNW 6 10 Mostly Clear FEW014 64 60     87%     29.97 29.96      
Jul 15 22:53 N 6 10 Mostly Clear FEW015 FEW060 66 60     81%     29.97 29.97      
Jul 15 21:53 N 3 10 Clear   67 60     79%     29.97 29.97      
Jul 15 20:53 NNE 10 10 Mostly Clear FEW016 FEW050 69 60     73%     29.97 29.97      
Jul 15 19:53 N 10 10 Mostly Clear FEW014 FEW047 72 60     66%   72 29.97 29.96      
Jul 15 18:53 N 17 10 Mostly Clear FEW014 FEW047 74 61     64%   74 29.97 29.96      
Jul 15 17:53 NNW 18 10 Clear CLR 77 61     58%   77 29.96 29.96      
Jul 15 16:53   10 Clear CLR 79 60     52%   79 29.97 29.97      
Jul 15 15:53 N 17 10 Mostly Clear FEW050 80 60     51%   81 29.98 29.98      
Jul 15 14:53   10 Mostly Clear FEW050 81 58     45%   81 29.99 29.99      
Jul 15 13:53 N 14 10 Mostly Clear FEW050 83 58     43%   83 30 30      
Jul 15 12:53 N 13 10 Clear CLR 85 57     39%   84 30.01 30      
Jul 15 11:53 N 10 10 Clear CLR 83 56     40%   82 30.01 30.01      
Jul 15 10:53 NNW 8 10 Clear CLR 80 53     39%   80 30.02 30.01      
Jul 15 09:53 6 10 Clear CLR 76 54     47%   75 30.02 30.01      
Jul 15 08:53 Calm 10 Clear CLR 72 57     59%   72 30.02 30.02      
Jul 15 07:53 Calm 10 Clear CLR 67 58     73%     30.02 30.02      
Jul 15 06:53 Calm 10 Clear CLR 64 57     78%     30.01 30.01      
Jul 15 05:53 Calm 10 Clear CLR 62 57     84%     30.01 30      
Jul 15 04:53 Calm 10 Clear CLR 63 56     78%     30 30      
Jul 15 03:53 NW 3 10 Clear CLR 62 57     84%     30 30      
Jul 15 02:53 Calm 10 Clear CLR 64 58     81%     30.01 30.01      
Jul 15 01:53 NNW 3 10 Clear CLR 64 57     78%     30.01 30.01      
Jul 15 00:53 NNW 3 10 Clear CLR 64 57     78%     30.02 30.01      
Jul 14 23:53 NW 3 10 Clear CLR 65 57     76%     30.03 30.02      
Jul 14 22:53 NW 5 10 Clear CLR 64 57     78%     30.02 30.02      
Jul 14 21:53 NW 3 10 Mostly Clear FEW004 66 57     73%     30.02 30.02      
Jul 14 20:53 NNW 7 10 Mostly Clear FEW020 66 58     75%     30.01 30.01      
Jul 14 19:53 NW 11 10 Mostly Clear FEW012 70 59     68%     30 30      
Jul 14 18:53 NW 9 10 Clear CLR 73 60     64%   73 29.99 29.99      
Jul 14 17:53 NW 10 10 Clear CLR 76 61     60%   76 30 29.99      
Jul 14 16:53 NW 10 10 Clear CLR 77 60     56%   77 30 30      
Jul 14 15:53 NW 11 10 Clear CLR 77 60     56%   77 30.01 30.01      
Jul 14 14:53 NW 13 10 Clear CLR 77 60     56%   77 30.02 30.01      
Jul 14 13:53 NNW 13 10 Clear CLR 78 60     54%   78 30.02 30.02      
Jul 14 12:53 NW 13 10 Mostly Clear FEW009 75 60     60%   75 30.02 30.02      
Jul 14 11:53 NNW 9 10 Mostly Clear FEW008 76 59     56%   76 30.02 30.02      
Jul 14 10:53 3 10 Mostly Clear FEW008 77 55     47%   77 30.01 30.01      
Jul 14 09:53 SSW 3 10 Mostly Clear FEW008 70 58     66%     30.02 30.01      
Jul 14 08:53 NNW 6 10 Mostly Clear FEW008 65 58     78%     30.02 30.01      
Jul 14 07:53 NNW 6 10 Mostly Clear FEW008 63 59     87%     30 30      
Jul 14 06:53 Calm 10 Clear CLR 61 58     90%     29.98 29.98      
Jul 14 05:53 Calm 10 Clear CLR 60 57     90%     29.97 29.96      
Jul 14 04:53 NW 3 10 Clear CLR 59 56     90%     29.95 29.95      
Jul 14 03:53 N 5 10 Clear CLR 61 57     87%     29.94 29.93      
Jul 14 02:53 NW 3 10 Clear CLR 60 57     90%     29.93 29.92      
Jul 14 01:53 N 3 10 Clear CLR 61 57     87%     29.93 29.92      
Jul 14 00:53 Calm 10 Clear CLR 62 58     86%     29.93 29.93      
Jul 13 23:53 NW 3 10 Clear CLR 62 58     86%     29.94 29.93      
Jul 13 22:53 NW 7 10 Clear CLR 63 58     84%     29.92 29.92      
Jul 13 21:53 NW 7 10 Clear CLR 63 58     84%     29.91 29.91      
Jul 13 20:53 NW 9 10 Mostly Clear FEW025 65 59     81%     29.9 29.89      
Jul 13 19:53 NW 10 10 Clear CLR 69 59     70%     29.88 29.88      
Jul 13 18:53 NW 11 10 Clear CLR 72 60     66%   72 29.88 29.87      
Jul 13 17:53 NW 10 10 Clear CLR 75 60     60%   75 29.87 29.87      
Jul 13 16:53 NW 11 10 Clear CLR 77 60     56%   77 29.87 29.87      
Jul 13 15:53 WNW 10 10 Clear CLR 77 62     60%   77 29.88 29.88      
Jul 13 14:53 NW 13 10 Clear CLR 77 61     58%   77 29.89 29.88      
Jul 13 13:53 NNW 10 10 Clear CLR 77 61     58%   77 29.9 29.89      
Jul 13 12:53 NNW 8 10 Mostly Clear FEW012 75 61     62%   75 29.91 29.91      
Jul 13 11:53 NNW 7 10 Clear CLR 75 59     57%   75 29.91 29.91      
Jul 13 10:53 NW 7 10 Mostly Clear FEW008 71 59     66%   71 29.92 29.91      
Jul 13 09:53 WNW 3 10 Mostly Clear FEW008 66 58     75%     29.92 29.91      
Jul 13 08:53 NW 3 10 Mostly Clear FEW007 63 58     84%     29.93 29.92      
Jul 13 08:41 Calm 10 Partly Cloudy FEW007 SCT011 62 58     86%     29.93        
Jul 13 08:25 Calm 10 Mostly Cloudy FEW007 BKN010 61 58     90%     29.92        
Jul 13 07:53 Calm 10 Mostly Cloudy FEW006 BKN009 60 57     90%     29.92 29.92      
Jul 13 06:53 NNE 3 10 Mostly Cloudy FEW004 SCT007 BKN009 59 57     93%     29.91 29.91      
Jul 13 05:53 NNE 3 10 Mostly Cloudy FEW005 BKN009 58 57     97%     29.9 29.89      
Jul 13 05:11 Calm 10 Mostly Cloudy BKN009 57 56     96%     29.89        
Jul 13 05:01 Calm 10 Partly Cloudy SCT009 57 56     96%     29.89        
Jul 13 04:53 Calm 10 Clear CLR 58 56     93%     29.89 29.88      
Jul 13 03:27 NNW 5 10 Mostly Clear FEW009 56 55     97%     29.89        
Jul 13 02:53 NW 3 10 Clear CLR 58 56     93%     29.89 29.89      
Jul 13 01:53 NNW 6 10 Clear CLR 58 56     93%     29.9 29.9      
Jul 13 00:53 NW 8 10 Clear CLR 59 57     93%     29.9 29.9      
Jul 12 23:53 NNW 8 10 Mostly Clear FEW010 60 57     90%     29.9 29.9      
Jul 12 22:53 NNW 8 10 Clear CLR 61 58     90%     29.9 29.9      
Jul 12 21:53 NW 8 10 Clear CLR 63 58     84%     29.9 29.9      
Jul 12 20:53 NW 8 10 Mostly Clear FEW020 64 58     81%     29.89 29.88      
Jul 12 19:53 NW 10 10 Mostly Clear FEW020 67 58     73%     29.88 29.88      
Jul 12 18:53 NNW 11 10 Clear CLR 71 58     63%   71 29.87 29.87      
Jul 12 17:53 NNW 14 10 Clear CLR 73 59     61%   73 29.87 29.87      
Jul 12 16:53 NW 15 10 Clear CLR 76 60     58%   76 29.87 29.87      
Jul 12 15:53 NW 15 10 Mostly Clear FEW110 80 61     52%   81 29.88 29.88      
Jul 12 14:53 NNW 14 10 Mostly Clear FEW110 79 61     54%   79 29.9 29.89      
Jul 12 13:53 N 9 10 Mostly Clear FEW110 79 61     54%   79 29.91 29.91      
Jul 12 12:53 NNW 8 10 Mostly Clear FEW110 77 61     58%   77 29.93 29.92      
Jul 12 11:53 NNW 5 10 Mostly Clear FEW110 75 59     57%   75 29.94 29.94      
Jul 12 10:53 WNW 6 10 Mostly Clear FEW110 72 59     64%   72 29.95 29.95      
Jul 12 09:53 Calm 10 Mostly Clear FEW008 68 59     73%     29.96 29.96      
Jul 12 08:53 Calm 10 Mostly Clear FEW006 FEW010 64 58     81%     29.97 29.97      
Jul 12 08:50 Calm 10 Partly Cloudy FEW004 FEW008 SCT015 64 57     77%     29.97        
Jul 12 08:29 WNW 5 9 Mostly Cloudy FEW004 SCT008 BKN013 64 59     84%     29.97        
Jul 12 07:53 Calm 9 Cloudy FEW004 BKN008 OVC012 61 58     90%     29.97 29.97      
Jul 12 06:53 Calm 9 Cloudy FEW004 BKN007 OVC010 60 58     93%     29.96 29.96      
Jul 12 05:53 Calm 10 Cloudy FEW004 BKN007 OVC009 60 58     93%     29.96 29.96      
Jul 12 04:53 Calm 10 Cloudy OVC009 60 58     93%     29.96 29.96      
Jul 12 03:53 N 6 10 Cloudy OVC009 60 58     93%     29.96 29.96      
Jul 12 02:53 N 5 10 Cloudy OVC009 60 58     93%     29.97 29.97      
Jul 12 02:33 N 5 10 Mostly Cloudy BKN009 59 57     93%     29.98        
Jul 12 02:15 NNW 6 10 Partly Cloudy SCT009 59 57     93%     29.98        
Jul 12 01:53 NNW 6 10 Clear CLR 59 57     93%     29.99 29.98      
Jul 12 00:53 NNW 7 10 Clear CLR 60 58     93%     29.99 29.99      
Jul 11 23:53 NW 7 10 Mostly Clear FEW003 60 58     93%     30.01 30      
Jul 11 22:53 NNW 5 10 Mostly Clear FEW004 61 58     90%     30.02 30.01      
Jul 11 21:53 N 8 10 Mostly Clear FEW005 63 59     87%     30.02 30.02      
Jul 11 20:53 N 10 10 Mostly Clear FEW006 64 59     84%     30.01 30.01      
Jul 11 19:53 NNW 15 10 Mostly Clear FEW008 FEW014 68 60     76%     30.01 30.01      
Jul 11 18:53 NNW 14 10 Mostly Clear FEW005 FEW016 72 61     68%   72 30.01 30      
Jul 11 17:53   10 Mostly Clear FEW005 75 61     62%   75 30.01 30      
Jul 11 16:53 NNW 14 10 Clear CLR 76 62     62%   76 30.01 30.01      
Jul 11 15:53   10 Mostly Clear FEW020 79 62     56%   79 30.02 30.02      
Jul 11 14:53   10 Clear CLR 79 63     58%   79 30.03 30.03      
Jul 11 13:53 NNW 15 10 Clear CLR 79 63     58%   79 30.04 30.04      
Jul 11 12:53 NNW 13 10 Clear CLR 79 62     56%   79 30.05 30.04      
Jul 11 10:53 NNW 8 10 Clear CLR 74 60     62%   74 30.06 30.06      
Jul 11 09:53 Calm 10 Mostly Clear FEW012 70 60     71%     30.07 30.06      
Jul 11 08:53 NNW 3 10 Mostly Clear FEW010 67 61     81%     30.08 30.07      
Jul 11 07:53 NNW 3 10 Mostly Clear FEW004 FEW009 64 61     90%     30.07 30.06      
Jul 11 06:53 N 6 10 Partly Cloudy FEW004 SCT011 62 60     93%     30.07 30.06      
Jul 11 05:53 WSW 3 10 Mostly Clear FEW004 61 57     87%     30.06 30.06      
Jul 11 04:53 Calm 10 Clear CLR 61 59     93%     30.06 30.05      
Jul 11 03:53 Calm 10 Clear CLR 62 58     86%     30.06 30.05      
Jul 11 02:53 Calm 10 Clear CLR 63 58     84%     30.06 30.06      
Jul 11 00:53 Calm 10 Clear CLR 64 58     81%     30.08 30.07      
Jul 10 23:53 N 3 10 Mostly Clear FEW017 63 59     87%     30.08 30.08      
Jul 10 22:53 NNW 7 10 Mostly Clear FEW017 63 58     84%     30.09 30.09      
Jul 10 21:53 N 10 10 Mostly Clear FEW018 64 58     81%     30.09 30.09      
Jul 10 20:53 NNW 13 10 Mostly Clear FEW020 65 58     78%     30.07 30.07      
Jul 10 18:53 NNW 14 10 Clear CLR 72 58     61%   72 30.05 30.05      
Jul 10 17:53 NNW 15 10 Clear CLR 75 59     57%   75 30.05 30.05      
Jul 10 16:53   10 Clear CLR 77 60     56%   77 30.05 30.05      
Jul 10 15:53 NNW 10 10 Clear CLR 77 62     60%   77 30.07 30.06      
Jul 10 13:53 NNW 10 10 Mostly Clear FEW016 FEW075 73 62     68%   73 30.09 30.09      
Jul 10 12:02 6 10 Partly Cloudy FEW014 FEW020 SCT030 71 62     73%   71 30.11        
Jul 10 11:53 6 10 Mostly Cloudy FEW014 SCT020 BKN028 71 62     73%   71 30.11 30.11      
Jul 10 10:53 7 10 Cloudy FEW012 BKN016 OVC024 67 61     81%     30.11 30.11      
Jul 10 09:53 NW 6 10 Clear   66 61     84%     30.11 30.1      
Jul 10 08:53 7 10 Cloudy FEW008 BKN013 OVC018 65 61     87%     30.11 30.1      
Jul 10 06:53 NW 7 10 Cloudy FEW004 BKN012 OVC017 64 61     90%     30.09 30.08      
Jul 10 05:53 NNW 6 10 Cloudy FEW004 BKN013 OVC017 64 61     90%     30.08 30.08      
Jul 10 04:53   10 Cloudy OVC015 64 61     90%     30.07 30.07      
Jul 10 04:48   10 Cloudy OVC015 64 61     88%     30.07        
Jul 10 03:53   10 Cloudy OVC014 64 61     90%     30.07 30.06      
Jul 10 03:51   10 Cloudy OVC014 64 61     88%     30.07        
Jul 10 02:53   10 Cloudy OVC018 65 60     84%     30.06 30.06      
Jul 10 01:53   10 Cloudy OVC018 65 60     84%     30.06 30.06      
Jul 10 00:53   10 Cloudy OVC016 66 62     87%     30.06 30.06      
Jul 10 00:32   10 Cloudy OVC015 66 61     84%     30.07        
Jul 10 00:15   10 Cloudy OVC014 66 62     87%     30.07        
Jul 09 23:53 NNW 7 10 Mostly Cloudy FEW010 BKN015 66 62     87%     30.07 30.06      
Jul 09 22:53 NW 13 10 Mostly Cloudy FEW010 BKN021 66 61     84%     30.07 30.07      
Jul 09 21:53 NW 15 10 Mostly Cloudy FEW012 BKN015 BKN120 66 62     87%     30.07 30.06      
Jul 09 21:14 NW 15 10 Mostly Cloudy FEW012 BKN015 BKN120 66 62     87%     30.06        
Jul 09 20:53 NNW 13 10 Mostly Cloudy FEW012 BKN015 BKN120 66 62     87%     30.06 30.05      
Jul 09 20:29 NNW 11 10 Mostly Cloudy FEW012 BKN017 BKN120 66 61     84%     30.06        
Jul 09 19:53 N 13 10 Mostly Cloudy FEW012 SCT022 BKN120 67 62     84%     30.05 30.05      
Jul 09 18:53   10 Mostly Cloudy FEW008 SCT120 BKN180 69 62     78%     30.05 30.04      
Jul 09 17:53   10 Mostly Cloudy FEW008 FEW070 BKN180 71 61     70%   71 30.04 30.03      
Jul 09 16:53 NNW 16 10 Mostly Cloudy FEW008 FEW070 BKN180 73 61     66%   73 30.03 30.03      
Jul 09 14:53 NNW 14 10 Mostly Cloudy FEW010 FEW065 BKN180 74 61     64%   74 30.03 30.03      
Jul 09 13:53 N 8 10 Mostly Cloudy FEW011 FEW070 BKN180 74 58     57%   74 30.04 30.03      
Jul 09 12:53 N 8 10 Partly Cloudy FEW014 SCT120 SCT150 72 57     59%   72 30.05 30.05      
May 15 09:53 Calm 10 Cloudy FEW021 BKN028 OVC035 60 47     62%     30.05 30.05      
May 14 23:53 WNW 11 10 Mostly Cloudy FEW010 SCT024 BKN045 56 49     77%     30.01 30.01      
May 14 15:53 WNW 13 10 Mostly Clear FEW025 FEW032 67 51     57%     29.96 29.96      
May 14 08:53 Calm 10 Cloudy FEW012 BKN019 OVC024 59 49     69%     30 30      
May 13 19:31 NW 14 10 Mostly Clear FEW008 63 50     63%     29.97        
May 13 02:53 SE 11 10 Clear CLR 56 49     77%     29.95 29.95      
May 12 00:53 E 3 10 Clear CLR 63 49     60%     29.81 29.8      
Jun 11 20:53 WSW 13 10 Clear   58 45     62%     29.98 29.98      
Jun 10 18:53   10 Partly Cloudy FEW025 SCT037 SCT065 66 45     47%     29.93 29.93      
Jun 10 12:53   10 Partly Cloudy FEW015 SCT032 SCT050 69 47     45%     29.98 29.97      
Notice The following observation data may not be complete
Jun 10 03:34   10 Mostly Cloudy BKN023          %              
Jun 09 00:53 NW 5 10 Clear   64 61     90%     29.96 29.96      
Jun 08 16:53 ESE 8 10 Cloudy FEW009 BKN038 OVC075 70 58     66%     29.99 29.98     0
Jun 07 14:53   10 Mostly Cloudy FEW050 SCT090 BKN130 71 53     53%   70 29.92 29.91      
Jun 07 06:53 Calm 7 Mostly Cloudy FEW001 SCT007 BKN010 58 52     81%     29.93 29.92      
Jun 06 04:53 NW 5 9 Clear CLR 55 52     89%     29.93 29.92      
Jun 06 03:53 NNW 6 9 Clear CLR 56 52     87%     29.92 29.92      
Jun 05 20:53 W 9 10 Partly Cloudy FEW002 FEW065 SCT110 65 53     65%     29.89 29.88      
Jun 05 12:53 NW 10 10 Mostly Clear FEW035 FEW090 79 51     38%   78 29.89 29.88